KC3OXK Weather Reports


time (UTC)temp
C
wind
direction
speed
KPH
gust
KPH
rain 1hr
cm
rain 24hr
cm
rain mn
cm
humidity
%
barometer
mb
20260504044530 6 0 0.0 0.0 0.00 0.00 0.00 72 1014.4
20260504043033 6 0 0.0 0.0 0.00 0.00 0.00 73 1014.4
20260504041532 6 0 0.0 0.0 0.00 0.00 0.00 70 1014.3
20260504040033 7 0 0.0 0.0 0.00 0.00 0.00 68 1014.1
20260504034530 7 0 0.0 0.0 0.00 0.00 0.00 63 1014.2
20260504033028 7 0 0.0 0.0 0.00 0.00 0.00 65 1013.9
20260504031528 7 0 0.0 0.0 0.00 0.00 0.00 63 1013.9
20260504030036 8 0 0.0 0.0 0.00 0.00 0.00 60 1013.8
20260504024534 8 0 0.0 0.0 0.00 0.00 0.00 61 1013.9
20260504023031 8 0 0.0 0.0 0.00 0.00 0.00 58 1013.7
20260504021537 8 0 0.0 0.0 0.00 0.00 0.00 57 1013.8
20260504020036 9 0 0.0 0.0 0.00 0.00 0.00 59 1013.7
20260504014530 9 0 0.0 0.0 0.00 0.00 0.00 54 1013.5
20260504013035 10 0 0.0 0.0 0.00 0.00 0.00 52 1013.6
20260504011529 10 0 0.0 0.0 0.00 0.00 0.00 54 1013.5
20260504010030 10 0 0.0 0.0 0.00 0.00 0.00 52 1013.5
20260504004540 11 0 0.0 1.6 0.00 0.00 0.00 49 1013.4
20260504003028 11 0 0.0 1.6 0.00 0.00 0.00 47 1013.4
20260504001534 12 0 0.0 3.2 0.00 0.00 0.00 46 1013.1
20260504000028 12 0 0.0 1.6 0.00 0.00 0.00 45 1012.9
20260503234529 13 0 0.0 8.0 0.00 0.00 0.00 44 1012.6
20260503233030 13 0 0.0 4.8 0.00 0.00 0.00 44 1012.7
20260503231528 13 261 1.6 8.0 0.00 0.00 0.00 44 1012.5
20260503230028 14 0 0.0 6.4 0.00 0.00 0.00 40 1012.4
20260503224529 15 66 0.0 4.8 0.00 0.00 0.00 38 1012.3
20260503223027 15 217 4.8 16.1 0.00 0.00 0.00 35 1012.5
20260503221534 16 135 1.6 12.9 0.00 0.00 0.00 35 1012.3
20260503220036 16 205 1.6 11.3 0.00 0.00 0.00 34 1012.5
20260503214542 16 266 3.2 14.5 0.00 0.00 0.00 35 1012.4
20260503213034 16 335 1.6 14.5 0.00 0.00 0.00 35 1012.4
20260503211532 16 0 3.2 12.9 0.00 0.00 0.00 35 1012.3
20260503210028 16 226 6.4 20.9 0.00 0.00 0.00 37 1012.3
20260503204532 16 213 9.7 27.4 0.00 0.00 0.00 33 1012.2
20260503203028 16 62 3.2 22.5 0.00 0.00 0.00 36 1012.3
20260503201530 17 44 3.2 9.7 0.00 0.00 0.00 34 1012.3
20260503200031 16 231 3.2 14.5 0.00 0.00 0.00 40 1012.5
20260503194529 15 214 0.0 20.9 0.00 0.00 0.00 38 1012.7
20260503193030 16 202 4.8 14.5 0.00 0.00 0.00 34 1013.0
20260503191530 15 183 1.6 14.5 0.00 0.00 0.00 37 1013.2
20260503190038 16 245 4.8 17.7 0.00 0.00 0.00 36 1013.5
20260503184531 15 24 3.2 20.9 0.00 0.00 0.00 38 1013.6
20260503183038 15 250 1.6 17.7 0.00 0.00 0.00 36 1013.8
20260503181549 15 285 3.2 25.7 0.00 0.00 0.00 35 1013.8
20260503180041 15 235 4.8 16.1 0.00 0.00 0.00 36 1013.9
20260503174530 13 213 4.8 20.9 0.00 0.00 0.00 37 1014.1
20260503173029 14 318 1.6 14.5 0.00 0.00 0.00 34 1014.3
20260503171528 14 334 4.8 17.7 0.00 0.00 0.00 39 1014.6
20260503081528 5 0 0.0 3.2 0.00 0.00 0.00 64 1014.2
20260503071528 6 0 0.0 4.8 0.00 0.00 0.00 67 1013.7